Year,Month,Day,Hour,Minute,Value (Times are PST for temperature in C)
2018,08,09,00,00,19.90
2018,08,09,00,01,19.90
2018,08,09,00,02,19.80
2018,08,09,00,03,19.80
2018,08,09,00,04,19.80
2018,08,09,00,05,19.70
2018,08,09,00,06,19.70
2018,08,09,00,07,19.60
2018,08,09,00,08,19.60
2018,08,09,00,09,19.50
2018,08,09,00,10,19.50
2018,08,09,00,11,19.40
2018,08,09,00,12,19.40
2018,08,09,00,13,19.40
2018,08,09,00,14,19.40
2018,08,09,00,15,19.30
2018,08,09,00,16,19.30
2018,08,09,00,17,19.30
2018,08,09,00,18,19.30
2018,08,09,00,19,19.30
2018,08,09,00,20,19.30
2018,08,09,00,21,19.20
2018,08,09,00,22,19.20
2018,08,09,00,23,19.20
2018,08,09,00,24,19.20
2018,08,09,00,25,19.20
2018,08,09,00,26,19.20
2018,08,09,00,27,19.10
2018,08,09,00,28,19.10
2018,08,09,00,29,19.10
2018,08,09,00,30,19.00
2018,08,09,00,31,19.00
2018,08,09,00,32,18.90
2018,08,09,00,33,18.90
2018,08,09,00,34,18.80
2018,08,09,00,35,18.80
2018,08,09,00,36,18.80
2018,08,09,00,37,18.80
2018,08,09,00,38,18.80
2018,08,09,00,39,18.80
2018,08,09,00,40,18.80
2018,08,09,00,41,18.80
2018,08,09,00,42,18.80
2018,08,09,00,43,18.80
2018,08,09,00,44,18.80
2018,08,09,00,45,18.80
2018,08,09,00,46,18.80
2018,08,09,00,47,18.70
2018,08,09,00,48,18.80
2018,08,09,00,49,18.70
2018,08,09,00,50,18.70
2018,08,09,00,51,18.70
2018,08,09,00,52,18.70
2018,08,09,00,53,18.70
2018,08,09,00,54,18.70
2018,08,09,00,55,18.70
2018,08,09,00,56,18.60
2018,08,09,00,57,18.60
2018,08,09,00,58,18.60
2018,08,09,00,59,18.50
2018,08,09,01,00,18.50
2018,08,09,01,01,18.50
2018,08,09,01,02,18.40
2018,08,09,01,03,18.40
2018,08,09,01,04,18.40
2018,08,09,01,05,18.40
2018,08,09,01,06,18.40
2018,08,09,01,07,18.40
2018,08,09,01,08,18.30
2018,08,09,01,09,18.30
2018,08,09,01,10,18.30
2018,08,09,01,11,18.30
2018,08,09,01,12,18.30
2018,08,09,01,13,18.20
2018,08,09,01,14,18.20
2018,08,09,01,15,18.20
2018,08,09,01,16,18.20
2018,08,09,01,17,18.20
2018,08,09,01,18,18.20
2018,08,09,01,19,18.10
2018,08,09,01,20,18.10
2018,08,09,01,21,18.00
2018,08,09,01,22,18.00
2018,08,09,01,23,18.00
2018,08,09,01,24,17.90
2018,08,09,01,25,17.90
2018,08,09,01,26,17.80
2018,08,09,01,27,17.80
2018,08,09,01,28,17.80
2018,08,09,01,29,17.70
2018,08,09,01,30,17.70
2018,08,09,01,31,17.70
2018,08,09,01,32,17.70
2018,08,09,01,33,17.70
2018,08,09,01,34,17.60
2018,08,09,01,35,17.60
2018,08,09,01,36,17.60
2018,08,09,01,37,17.50
2018,08,09,01,38,17.50
2018,08,09,01,39,17.40
2018,08,09,01,40,17.40
2018,08,09,01,41,17.40
2018,08,09,01,42,17.30
2018,08,09,01,43,17.30
2018,08,09,01,44,17.30
2018,08,09,01,45,17.30
2018,08,09,01,46,17.20
2018,08,09,01,47,17.20
2018,08,09,01,48,17.20
2018,08,09,01,49,17.20
2018,08,09,01,50,17.20
2018,08,09,01,51,17.20
2018,08,09,01,52,17.10
2018,08,09,01,53,17.10
2018,08,09,01,54,17.10
2018,08,09,01,55,17.10
2018,08,09,01,56,17.00
2018,08,09,01,57,17.00
2018,08,09,01,58,16.90
2018,08,09,01,59,16.90
2018,08,09,02,00,16.80
2018,08,09,02,01,16.80
2018,08,09,02,02,16.80
2018,08,09,02,03,16.70
2018,08,09,02,04,16.70
2018,08,09,02,05,16.70
2018,08,09,02,06,16.60
2018,08,09,02,07,16.60
2018,08,09,02,08,16.60
2018,08,09,02,09,16.60
2018,08,09,02,10,16.60
2018,08,09,02,11,16.50
2018,08,09,02,12,16.50
2018,08,09,02,13,16.50
2018,08,09,02,14,16.40
2018,08,09,02,15,16.40
2018,08,09,02,16,16.40
2018,08,09,02,17,16.40
2018,08,09,02,18,16.40
2018,08,09,02,19,16.30
2018,08,09,02,20,16.30
2018,08,09,02,21,16.30
2018,08,09,02,22,16.30
2018,08,09,02,23,16.30
2018,08,09,02,24,16.30
2018,08,09,02,25,16.30
2018,08,09,02,26,16.30
2018,08,09,02,27,16.30
2018,08,09,02,28,16.20
2018,08,09,02,29,16.20
2018,08,09,02,30,16.20
2018,08,09,02,31,16.20
2018,08,09,02,32,16.20
2018,08,09,02,33,16.20
2018,08,09,02,34,16.20
2018,08,09,02,35,16.20
2018,08,09,02,36,16.20
2018,08,09,02,37,16.10
2018,08,09,02,38,16.10
2018,08,09,02,39,16.10
2018,08,09,02,40,16.10
2018,08,09,02,41,16.10
2018,08,09,02,42,16.10
2018,08,09,02,43,16.10
2018,08,09,02,44,16.10
2018,08,09,02,45,16.00
2018,08,09,02,46,16.00
2018,08,09,02,47,15.90
2018,08,09,02,48,15.90
2018,08,09,02,49,15.90
2018,08,09,02,50,15.90
2018,08,09,02,51,15.80
2018,08,09,02,52,15.80
2018,08,09,02,53,15.80
2018,08,09,02,54,15.80
2018,08,09,02,55,15.80
2018,08,09,02,56,15.80
2018,08,09,02,57,15.80
2018,08,09,02,58,15.80
2018,08,09,02,59,15.70
2018,08,09,03,00,15.70
2018,08,09,03,01,15.70
2018,08,09,03,02,15.70
2018,08,09,03,03,15.60
2018,08,09,03,04,15.60
2018,08,09,03,05,15.60
2018,08,09,03,06,15.60
2018,08,09,03,07,15.60
2018,08,09,03,08,15.50
2018,08,09,03,09,15.50
2018,08,09,03,10,15.50
2018,08,09,03,11,15.50
2018,08,09,03,12,15.50
2018,08,09,03,13,15.40
2018,08,09,03,14,15.40
2018,08,09,03,15,15.40
2018,08,09,03,16,15.40
2018,08,09,03,17,15.40
2018,08,09,03,18,15.40
2018,08,09,03,19,15.40
2018,08,09,03,20,15.40
2018,08,09,03,21,15.40
2018,08,09,03,22,15.40
2018,08,09,03,23,15.40
2018,08,09,03,24,15.40
2018,08,09,03,25,15.40
2018,08,09,03,26,15.40
2018,08,09,03,27,15.40
2018,08,09,03,28,15.40
2018,08,09,03,29,15.40
2018,08,09,03,30,15.40
2018,08,09,03,31,15.40
2018,08,09,03,32,15.40
2018,08,09,03,33,15.40
2018,08,09,03,34,15.40
2018,08,09,03,35,15.50
2018,08,09,03,36,15.50
2018,08,09,03,37,15.50
2018,08,09,03,38,15.50
2018,08,09,03,39,15.60
2018,08,09,03,40,15.60
2018,08,09,03,41,15.60
2018,08,09,03,42,15.60
2018,08,09,03,43,15.60
2018,08,09,03,44,15.70
2018,08,09,03,45,15.70
2018,08,09,03,46,15.70
2018,08,09,03,47,15.70
2018,08,09,03,48,15.70
2018,08,09,03,49,15.80
2018,08,09,03,50,15.80
2018,08,09,03,51,15.80
2018,08,09,03,52,15.80
2018,08,09,03,53,15.80
2018,08,09,03,54,15.80
2018,08,09,03,55,15.80
2018,08,09,03,56,15.80
2018,08,09,03,57,15.80
2018,08,09,03,58,15.80
2018,08,09,03,59,15.80
2018,08,09,04,00,15.80
2018,08,09,04,01,15.90
2018,08,09,04,02,15.90
2018,08,09,04,03,15.90
2018,08,09,04,04,16.00
2018,08,09,04,05,16.00
2018,08,09,04,06,16.00
2018,08,09,04,07,16.00
2018,08,09,04,08,16.10
2018,08,09,04,09,16.10
2018,08,09,04,10,16.10
2018,08,09,04,11,16.10
2018,08,09,04,12,16.10
2018,08,09,04,13,16.10
2018,08,09,04,14,16.10
2018,08,09,04,15,16.10
2018,08,09,04,16,16.10
2018,08,09,04,17,16.10
2018,08,09,04,18,16.10
2018,08,09,04,19,16.20
2018,08,09,04,20,16.20
2018,08,09,04,21,16.20
2018,08,09,04,22,16.20
2018,08,09,04,23,16.20
2018,08,09,04,24,16.20
2018,08,09,04,25,16.30
2018,08,09,04,26,16.30
2018,08,09,04,27,16.30
2018,08,09,04,28,16.30
2018,08,09,04,29,16.30
2018,08,09,04,30,16.30
2018,08,09,04,31,16.30
2018,08,09,04,32,16.30
2018,08,09,04,33,16.30
2018,08,09,04,34,16.30
2018,08,09,04,35,16.30
2018,08,09,04,36,16.30
2018,08,09,04,37,16.30
2018,08,09,04,38,16.30
2018,08,09,04,39,16.30
2018,08,09,04,40,16.30
2018,08,09,04,41,16.30
2018,08,09,04,42,16.30
2018,08,09,04,43,16.20
2018,08,09,04,44,16.20
2018,08,09,04,45,16.20
2018,08,09,04,46,16.20
2018,08,09,04,47,16.10
2018,08,09,04,48,16.10
2018,08,09,04,49,16.00
2018,08,09,04,50,16.00
2018,08,09,04,51,15.90
2018,08,09,04,52,15.90
2018,08,09,04,53,15.90
2018,08,09,04,54,15.80
2018,08,09,04,55,15.80
2018,08,09,04,56,15.80
2018,08,09,04,57,15.70
2018,08,09,04,58,15.70
2018,08,09,04,59,15.60
2018,08,09,05,00,15.50
2018,08,09,05,01,15.50
2018,08,09,05,02,15.40
2018,08,09,05,03,15.30
2018,08,09,05,04,15.30
2018,08,09,05,05,15.20
2018,08,09,05,06,15.20
2018,08,09,05,07,15.10
2018,08,09,05,08,15.10
2018,08,09,05,09,15.00
2018,08,09,05,10,15.00
2018,08,09,05,11,14.90
2018,08,09,05,12,14.90
2018,08,09,05,13,14.90
2018,08,09,05,14,14.90
2018,08,09,05,15,14.80
2018,08,09,05,16,14.80
2018,08,09,05,17,14.80
2018,08,09,05,18,14.70
2018,08,09,05,19,14.70
2018,08,09,05,20,14.70
2018,08,09,05,21,14.60
2018,08,09,05,22,14.60
2018,08,09,05,23,14.60
2018,08,09,05,24,14.60
2018,08,09,05,25,14.50
2018,08,09,05,26,14.50
2018,08,09,05,27,14.50
2018,08,09,05,28,14.50
2018,08,09,05,29,14.40
2018,08,09,05,30,14.40
2018,08,09,05,31,14.40
2018,08,09,05,32,14.40
2018,08,09,05,33,14.40
2018,08,09,05,34,14.30
2018,08,09,05,35,14.30
2018,08,09,05,36,14.30
2018,08,09,05,37,14.30
2018,08,09,05,38,14.30
2018,08,09,05,39,14.20
2018,08,09,05,40,14.20
2018,08,09,05,41,14.20
2018,08,09,05,42,14.20
2018,08,09,05,43,14.20
2018,08,09,05,44,14.20
2018,08,09,05,45,14.20
2018,08,09,05,46,14.20
2018,08,09,05,47,14.20
2018,08,09,05,48,14.10
2018,08,09,05,49,14.10
2018,08,09,05,50,14.10
2018,08,09,05,51,14.10
2018,08,09,05,52,14.10
2018,08,09,05,53,14.10
2018,08,09,05,54,14.10
2018,08,09,05,55,14.00
2018,08,09,05,56,14.00
2018,08,09,05,57,14.00
2018,08,09,05,58,14.00
2018,08,09,05,59,14.00
2018,08,09,06,00,13.90
2018,08,09,06,01,13.90
2018,08,09,06,02,13.90
2018,08,09,06,03,13.90
2018,08,09,06,04,13.90
2018,08,09,06,05,13.90
2018,08,09,06,06,13.90
2018,08,09,06,07,13.90
2018,08,09,06,08,13.80
2018,08,09,06,09,13.80
2018,08,09,06,10,13.80
2018,08,09,06,11,13.80
2018,08,09,06,12,13.80
2018,08,09,06,13,13.70
2018,08,09,06,14,13.70
2018,08,09,06,15,13.70
2018,08,09,06,16,13.70
2018,08,09,06,17,13.70
2018,08,09,06,18,13.60
2018,08,09,06,19,13.60
2018,08,09,06,20,13.60
2018,08,09,06,21,13.60
2018,08,09,06,22,13.60
2018,08,09,06,23,13.60
2018,08,09,06,24,13.60
2018,08,09,06,25,13.60
2018,08,09,06,26,13.60
2018,08,09,06,27,13.60
2018,08,09,06,28,13.50
2018,08,09,06,29,13.50
2018,08,09,06,30,13.50
2018,08,09,06,31,13.50
2018,08,09,06,32,13.50
2018,08,09,06,33,13.50
2018,08,09,06,34,13.40
2018,08,09,06,35,13.40
2018,08,09,06,36,13.40
2018,08,09,06,37,13.40
2018,08,09,06,38,13.40
2018,08,09,06,39,13.50
2018,08,09,06,40,13.50
2018,08,09,06,41,13.50
2018,08,09,06,42,13.50
2018,08,09,06,43,13.50
2018,08,09,06,44,13.50
2018,08,09,06,45,13.50
2018,08,09,06,46,13.50
2018,08,09,06,47,13.50
2018,08,09,06,48,13.50
2018,08,09,06,49,13.60
2018,08,09,06,50,13.60
2018,08,09,06,51,13.60
2018,08,09,06,52,13.60
2018,08,09,06,53,13.60
2018,08,09,06,54,13.60
2018,08,09,06,55,13.60
2018,08,09,06,56,13.60
2018,08,09,06,57,13.70
2018,08,09,06,58,13.70
2018,08,09,06,59,13.70
2018,08,09,07,00,13.70
2018,08,09,07,01,13.70
2018,08,09,07,02,13.80
2018,08,09,07,03,13.80
2018,08,09,07,04,13.80
2018,08,09,07,05,13.80
2018,08,09,07,06,13.80
2018,08,09,07,07,13.80
2018,08,09,07,08,13.80
2018,08,09,07,09,13.80
2018,08,09,07,10,13.80
2018,08,09,07,11,13.80
2018,08,09,07,12,13.80
2018,08,09,07,13,13.90
2018,08,09,07,14,13.90
2018,08,09,07,15,13.90
2018,08,09,07,16,13.90
2018,08,09,07,17,13.90
2018,08,09,07,18,14.00
2018,08,09,07,19,14.00
2018,08,09,07,20,14.10
2018,08,09,07,21,14.10
2018,08,09,07,22,14.10
2018,08,09,07,23,14.10
2018,08,09,07,24,14.20
2018,08,09,07,25,14.20
2018,08,09,07,26,14.20
2018,08,09,07,27,14.20
2018,08,09,07,28,14.20
2018,08,09,07,29,14.30
2018,08,09,07,30,14.30
2018,08,09,07,31,14.30
2018,08,09,07,32,14.40
2018,08,09,07,33,14.40
2018,08,09,07,34,14.40
2018,08,09,07,35,14.50
2018,08,09,07,36,14.50
2018,08,09,07,37,14.50
2018,08,09,07,38,14.60
2018,08,09,07,39,14.60
2018,08,09,07,40,14.60
2018,08,09,07,41,14.70
2018,08,09,07,42,14.70
2018,08,09,07,43,14.70
2018,08,09,07,44,14.80
2018,08,09,07,45,14.80
2018,08,09,07,46,14.90
2018,08,09,07,47,14.90
2018,08,09,07,48,15.00
2018,08,09,07,49,15.00
2018,08,09,07,50,15.10
2018,08,09,07,51,15.20
2018,08,09,07,52,15.30
2018,08,09,07,53,15.30
2018,08,09,07,54,15.40
2018,08,09,07,55,15.50
2018,08,09,07,56,15.60
2018,08,09,07,57,15.70
2018,08,09,07,58,15.70
2018,08,09,07,59,15.80
2018,08,09,08,00,15.90
2018,08,09,08,01,16.00
2018,08,09,08,02,16.00
2018,08,09,08,03,16.10
2018,08,09,08,04,16.20
2018,08,09,08,05,16.30
2018,08,09,08,06,16.30
2018,08,09,08,07,16.30
2018,08,09,08,08,16.40
2018,08,09,08,09,16.40
2018,08,09,08,10,16.50
2018,08,09,08,11,16.50
2018,08,09,08,12,16.60
2018,08,09,08,13,16.60
2018,08,09,08,14,16.70
2018,08,09,08,15,16.70
2018,08,09,08,16,16.70
2018,08,09,08,17,16.80
2018,08,09,08,18,16.80
2018,08,09,08,19,16.80
2018,08,09,08,20,16.90
2018,08,09,08,21,16.90
2018,08,09,08,22,16.90
2018,08,09,08,23,17.00
2018,08,09,08,24,17.00
2018,08,09,08,25,17.10
2018,08,09,08,26,17.20
2018,08,09,08,27,17.20
2018,08,09,08,28,17.20
2018,08,09,08,29,17.30
2018,08,09,08,30,17.30
2018,08,09,08,31,17.40
2018,08,09,08,32,17.40
2018,08,09,08,33,17.50
2018,08,09,08,34,17.50
2018,08,09,08,35,17.60
2018,08,09,08,36,17.60
2018,08,09,08,37,17.70
2018,08,09,08,38,17.70
2018,08,09,08,39,17.80
2018,08,09,08,40,17.80
2018,08,09,08,41,17.90
2018,08,09,08,42,17.90
2018,08,09,08,43,18.00
2018,08,09,08,44,18.00
2018,08,09,08,45,18.10
2018,08,09,08,46,18.10
2018,08,09,08,47,18.20
2018,08,09,08,48,18.30
2018,08,09,08,49,18.30
2018,08,09,08,50,18.40
2018,08,09,08,51,18.50
2018,08,09,08,52,18.50
2018,08,09,08,53,18.60
2018,08,09,08,54,18.70
2018,08,09,08,55,18.70
2018,08,09,08,56,18.80
2018,08,09,08,57,18.90
2018,08,09,08,58,19.00
2018,08,09,08,59,19.10
2018,08,09,09,00,19.10
2018,08,09,09,01,19.20
2018,08,09,09,02,19.20
2018,08,09,09,03,19.30
2018,08,09,09,04,19.40
2018,08,09,09,05,19.40
2018,08,09,09,06,19.50
2018,08,09,09,07,19.50
2018,08,09,09,08,19.60
2018,08,09,09,09,19.60
2018,08,09,09,10,19.70
2018,08,09,09,11,19.70
2018,08,09,09,12,19.80
2018,08,09,09,13,19.80
2018,08,09,09,14,19.80
2018,08,09,09,15,19.90
2018,08,09,09,16,19.90
2018,08,09,09,17,19.90
2018,08,09,09,18,20.00
2018,08,09,09,19,20.00
2018,08,09,09,20,20.10
2018,08,09,09,21,20.10
2018,08,09,09,22,20.20
2018,08,09,09,23,20.30
2018,08,09,09,24,20.30
2018,08,09,09,25,20.40
2018,08,09,09,26,20.50
2018,08,09,09,27,20.50
2018,08,09,09,28,20.60
2018,08,09,09,29,20.70
2018,08,09,09,30,20.70
2018,08,09,09,31,20.80
2018,08,09,09,32,20.80
2018,08,09,09,33,20.80
2018,08,09,09,34,20.90
2018,08,09,09,35,20.90
2018,08,09,09,36,20.90
2018,08,09,09,37,20.90
2018,08,09,09,38,20.90
2018,08,09,09,39,20.90
2018,08,09,09,40,21.00
2018,08,09,09,41,21.00
2018,08,09,09,42,21.00
2018,08,09,09,43,21.10
2018,08,09,09,44,21.10
2018,08,09,09,45,21.20
2018,08,09,09,46,21.20
2018,08,09,09,47,21.30
2018,08,09,09,48,21.30
2018,08,09,09,49,21.30
2018,08,09,09,50,21.40
2018,08,09,09,51,21.40
2018,08,09,09,52,21.40
2018,08,09,09,53,21.40
2018,08,09,09,54,21.50
2018,08,09,09,55,21.50
2018,08,09,09,56,21.50
2018,08,09,09,57,21.50
2018,08,09,09,58,21.50
2018,08,09,09,59,21.50
2018,08,09,10,00,21.60
2018,08,09,10,01,21.60
2018,08,09,10,02,21.70
2018,08,09,10,03,21.70
2018,08,09,10,04,21.70
2018,08,09,10,05,21.80
2018,08,09,10,06,21.80
2018,08,09,10,07,21.90
2018,08,09,10,08,21.90
2018,08,09,10,09,22.00
2018,08,09,10,10,22.10
2018,08,09,10,11,22.20
2018,08,09,10,12,22.30
2018,08,09,10,13,22.30
2018,08,09,10,14,22.40
2018,08,09,10,15,22.50
2018,08,09,10,16,22.60
2018,08,09,10,17,22.60
2018,08,09,10,18,22.70
2018,08,09,10,19,22.80
2018,08,09,10,20,22.80
2018,08,09,10,21,22.90
2018,08,09,10,22,22.90
2018,08,09,10,23,22.90
2018,08,09,10,24,22.90
2018,08,09,10,25,22.90
2018,08,09,10,26,22.90
2018,08,09,10,27,22.80
2018,08,09,10,28,22.80
2018,08,09,10,29,22.80
2018,08,09,10,30,22.70
2018,08,09,10,31,22.70
2018,08,09,10,32,22.70
2018,08,09,10,33,22.70
2018,08,09,10,34,22.60
2018,08,09,10,35,22.60
2018,08,09,10,36,22.60
2018,08,09,10,37,22.70
2018,08,09,10,38,22.70
2018,08,09,10,39,22.80
2018,08,09,10,40,22.80
2018,08,09,10,41,22.80
2018,08,09,10,42,22.90
2018,08,09,10,43,22.90
2018,08,09,10,44,22.90
2018,08,09,10,45,22.90
2018,08,09,10,46,23.00
2018,08,09,10,47,23.00
2018,08,09,10,48,23.10
2018,08,09,10,49,23.10
2018,08,09,10,50,23.20
2018,08,09,10,51,23.20
2018,08,09,10,52,23.30
2018,08,09,10,53,23.40
2018,08,09,10,54,23.50
2018,08,09,10,55,23.60
2018,08,09,10,56,23.70
2018,08,09,10,57,23.70
2018,08,09,10,58,23.80
2018,08,09,10,59,23.80
2018,08,09,11,00,23.80
2018,08,09,11,01,23.80
2018,08,09,11,02,23.80
2018,08,09,11,03,23.80
2018,08,09,11,04,23.70
2018,08,09,11,05,23.70
2018,08,09,11,06,23.70
2018,08,09,11,07,23.70
2018,08,09,11,08,23.70
2018,08,09,11,09,23.70
2018,08,09,11,10,23.70
2018,08,09,11,11,23.70
2018,08,09,11,12,23.70
2018,08,09,11,13,23.70
2018,08,09,11,14,23.80
2018,08,09,11,15,23.80
2018,08,09,11,16,23.80
2018,08,09,11,17,23.80
2018,08,09,11,18,23.80
2018,08,09,11,19,23.80
2018,08,09,11,20,23.80
2018,08,09,11,21,23.90
2018,08,09,11,22,24.00
2018,08,09,11,23,24.10
2018,08,09,11,24,24.10
2018,08,09,11,25,24.10
2018,08,09,11,26,24.20
2018,08,09,11,27,24.20
2018,08,09,11,28,24.20
2018,08,09,11,29,24.20
2018,08,09,11,30,24.20
2018,08,09,11,31,24.30
2018,08,09,11,32,24.30
2018,08,09,11,33,24.30
2018,08,09,11,34,24.20
2018,08,09,11,35,24.10
2018,08,09,11,36,24.00
2018,08,09,11,37,23.90
2018,08,09,11,38,23.90
2018,08,09,11,39,23.80
2018,08,09,11,40,23.80
2018,08,09,11,41,23.80
2018,08,09,11,42,23.80
2018,08,09,11,43,23.70
2018,08,09,11,44,23.70
2018,08,09,11,45,23.70
2018,08,09,11,46,23.70
2018,08,09,11,47,23.70
2018,08,09,11,48,23.70
2018,08,09,11,49,23.70
2018,08,09,11,50,23.80
2018,08,09,11,51,23.80
2018,08,09,11,52,23.80
2018,08,09,11,53,23.90
2018,08,09,11,54,23.90
2018,08,09,11,55,24.00
2018,08,09,11,56,24.10
2018,08,09,11,57,24.10
2018,08,09,11,58,24.10
2018,08,09,11,59,24.20
2018,08,09,12,00,24.10
2018,08,09,12,01,24.10
2018,08,09,12,02,24.10
2018,08,09,12,03,24.10
2018,08,09,12,04,24.10
2018,08,09,12,05,24.20
2018,08,09,12,06,24.30
2018,08,09,12,07,24.40
2018,08,09,12,08,24.50
2018,08,09,12,09,24.50
2018,08,09,12,10,24.60
2018,08,09,12,11,24.60
2018,08,09,12,12,24.60
2018,08,09,12,13,24.50
2018,08,09,12,14,24.50
2018,08,09,12,15,24.40
2018,08,09,12,16,24.40
2018,08,09,12,17,24.40
2018,08,09,12,18,24.30
2018,08,09,12,19,24.30
2018,08,09,12,20,24.30
2018,08,09,12,21,24.20
2018,08,09,12,22,24.10
2018,08,09,12,23,24.10
2018,08,09,12,24,24.10
2018,08,09,12,25,24.10
2018,08,09,12,26,24.20
2018,08,09,12,27,24.20
2018,08,09,12,28,24.30
2018,08,09,12,29,24.40
2018,08,09,12,30,24.50
2018,08,09,12,31,24.60
2018,08,09,12,32,24.60
2018,08,09,12,33,24.60
2018,08,09,12,34,24.50
2018,08,09,12,35,24.50
2018,08,09,12,36,24.40
2018,08,09,12,37,24.40
2018,08,09,12,38,24.40
2018,08,09,12,39,24.40
2018,08,09,12,40,24.30
2018,08,09,12,41,24.30
2018,08,09,12,42,24.30
2018,08,09,12,43,24.20
2018,08,09,12,44,24.10
2018,08,09,12,45,24.10
2018,08,09,12,46,24.00
2018,08,09,12,47,24.00
2018,08,09,12,48,24.00
2018,08,09,12,49,24.00
2018,08,09,12,50,23.90
2018,08,09,12,51,23.90
2018,08,09,12,52,24.00
2018,08,09,12,53,24.10
2018,08,09,12,54,24.10
2018,08,09,12,55,24.10
2018,08,09,12,56,24.10
2018,08,09,12,57,24.10
2018,08,09,12,58,24.10
2018,08,09,12,59,24.10
2018,08,09,13,00,24.20
2018,08,09,13,01,24.30
2018,08,09,13,02,24.40
2018,08,09,13,03,24.50
2018,08,09,13,04,24.60
2018,08,09,13,05,24.70
2018,08,09,13,06,24.70
2018,08,09,13,07,24.80
2018,08,09,13,08,24.80
2018,08,09,13,09,24.90
2018,08,09,13,10,24.90
2018,08,09,13,11,25.00
2018,08,09,13,12,25.10
2018,08,09,13,13,25.20
2018,08,09,13,14,25.20
2018,08,09,13,15,25.30
2018,08,09,13,16,25.40
2018,08,09,13,17,25.40
2018,08,09,13,18,25.50
2018,08,09,13,19,25.50
2018,08,09,13,20,25.60
2018,08,09,13,21,25.50
2018,08,09,13,22,25.50
2018,08,09,13,23,25.40
2018,08,09,13,24,25.40
2018,08,09,13,25,25.50
2018,08,09,13,26,25.50
2018,08,09,13,27,25.60
2018,08,09,13,28,25.60
2018,08,09,13,29,25.70
2018,08,09,13,30,25.80
2018,08,09,13,31,25.90
2018,08,09,13,32,25.90
2018,08,09,13,33,25.90
2018,08,09,13,34,25.90
2018,08,09,13,35,25.80
2018,08,09,13,36,25.80
2018,08,09,13,37,25.80
2018,08,09,13,38,25.80
2018,08,09,13,39,25.90
2018,08,09,13,40,25.90
2018,08,09,13,41,25.90
2018,08,09,13,42,25.90
2018,08,09,13,43,25.90
2018,08,09,13,44,25.90
2018,08,09,13,45,25.90
2018,08,09,13,46,25.90
2018,08,09,13,47,25.90
2018,08,09,13,48,25.90
2018,08,09,13,49,25.90
2018,08,09,13,50,25.90
2018,08,09,13,51,25.90
2018,08,09,13,52,25.90
2018,08,09,13,53,25.90
2018,08,09,13,54,25.80
2018,08,09,13,55,25.80
2018,08,09,13,56,25.80
2018,08,09,13,57,25.70
2018,08,09,13,58,25.70
2018,08,09,13,59,25.60
2018,08,09,14,00,25.60
2018,08,09,14,01,25.50
2018,08,09,14,02,25.50
2018,08,09,14,03,25.50
2018,08,09,14,04,25.50
2018,08,09,14,05,25.50
2018,08,09,14,06,25.50
2018,08,09,14,07,25.40
2018,08,09,14,08,25.40
2018,08,09,14,09,25.40
2018,08,09,14,10,25.40
2018,08,09,14,11,25.40
2018,08,09,14,12,25.30
2018,08,09,14,13,25.30
2018,08,09,14,14,25.30
2018,08,09,14,15,25.30
2018,08,09,14,16,25.30
2018,08,09,14,17,25.30
2018,08,09,14,18,25.40
2018,08,09,14,19,25.40
2018,08,09,14,20,25.40
2018,08,09,14,21,25.30
2018,08,09,14,22,25.30
2018,08,09,14,23,25.30
2018,08,09,14,24,25.30
2018,08,09,14,25,25.20
2018,08,09,14,26,25.20
2018,08,09,14,27,25.20
2018,08,09,14,28,25.20
2018,08,09,14,29,25.20
2018,08,09,14,30,25.20
2018,08,09,14,31,25.20
2018,08,09,14,32,25.20
2018,08,09,14,33,25.20
2018,08,09,14,34,25.20
2018,08,09,14,35,25.20
2018,08,09,14,36,25.30
2018,08,09,14,37,25.30
2018,08,09,14,38,25.30
2018,08,09,14,39,25.30
2018,08,09,14,40,25.30
2018,08,09,14,41,25.30
2018,08,09,14,42,25.40
2018,08,09,14,43,25.40
2018,08,09,14,44,25.50
2018,08,09,14,45,25.60
2018,08,09,14,46,25.70
2018,08,09,14,47,25.80
2018,08,09,14,48,25.90
2018,08,09,14,49,26.10
2018,08,09,14,50,26.20
2018,08,09,14,51,26.30
2018,08,09,14,52,26.40
2018,08,09,14,53,26.50
2018,08,09,14,54,26.60
2018,08,09,14,55,26.70
2018,08,09,14,56,26.80
2018,08,09,14,57,26.80
2018,08,09,14,58,26.80
2018,08,09,14,59,26.90
2018,08,09,15,00,27.00
2018,08,09,15,01,27.10
2018,08,09,15,02,27.20
2018,08,09,15,03,27.30
2018,08,09,15,04,27.40
2018,08,09,15,05,27.40
2018,08,09,15,06,27.40
2018,08,09,15,07,27.40
2018,08,09,15,08,27.40
2018,08,09,15,09,27.40
2018,08,09,15,10,27.40
2018,08,09,15,11,27.40
2018,08,09,15,12,27.40
2018,08,09,15,13,27.40
2018,08,09,15,14,27.50
2018,08,09,15,15,27.50
2018,08,09,15,16,27.60
2018,08,09,15,17,27.60
2018,08,09,15,18,27.60
2018,08,09,15,19,27.70
2018,08,09,15,20,27.70
2018,08,09,15,21,27.70
2018,08,09,15,22,27.70
2018,08,09,15,23,27.70
2018,08,09,15,24,27.70
2018,08,09,15,25,27.70
2018,08,09,15,26,27.70
2018,08,09,15,27,27.60
2018,08,09,15,28,27.50
2018,08,09,15,29,27.50
2018,08,09,15,30,27.60
2018,08,09,15,31,27.60
2018,08,09,15,32,27.60
2018,08,09,15,33,27.60
2018,08,09,15,34,27.60
2018,08,09,15,35,27.60
2018,08,09,15,36,27.60
2018,08,09,15,37,27.60
2018,08,09,15,38,27.60
2018,08,09,15,39,27.50
2018,08,09,15,40,27.50
2018,08,09,15,41,27.40
2018,08,09,15,42,27.40
2018,08,09,15,43,27.40
2018,08,09,15,44,27.40
2018,08,09,15,45,27.30
2018,08,09,15,46,27.20
2018,08,09,15,47,27.20
2018,08,09,15,48,27.10
2018,08,09,15,49,27.10
2018,08,09,15,50,27.20
2018,08,09,15,51,27.20
2018,08,09,15,52,27.20
2018,08,09,15,53,27.20
2018,08,09,15,54,27.20
2018,08,09,15,55,27.20
2018,08,09,15,56,27.20
2018,08,09,15,57,27.20
2018,08,09,15,58,27.10
2018,08,09,15,59,27.10
2018,08,09,16,00,27.10
2018,08,09,16,01,27.20
2018,08,09,16,02,27.20
2018,08,09,16,03,27.20
2018,08,09,16,04,27.20
2018,08,09,16,05,27.20
2018,08,09,16,06,27.20
2018,08,09,16,07,27.20
2018,08,09,16,08,27.20
2018,08,09,16,09,27.20
2018,08,09,16,10,27.20
2018,08,09,16,11,27.20
2018,08,09,16,12,27.20
2018,08,09,16,13,27.20
2018,08,09,16,14,27.30
2018,08,09,16,15,27.30
2018,08,09,16,16,27.40
2018,08,09,16,17,27.40
2018,08,09,16,18,27.40
2018,08,09,16,19,27.40
2018,08,09,16,20,27.50
2018,08,09,16,21,27.60
2018,08,09,16,22,27.70
2018,08,09,16,23,27.80
2018,08,09,16,24,27.80
2018,08,09,16,25,27.90
2018,08,09,16,26,28.00
2018,08,09,16,27,28.10
2018,08,09,16,28,28.20
2018,08,09,16,29,28.30
2018,08,09,16,30,28.30
2018,08,09,16,31,28.40
2018,08,09,16,32,28.40
2018,08,09,16,33,28.50
2018,08,09,16,34,28.50
2018,08,09,16,35,28.50
2018,08,09,16,36,28.40
2018,08,09,16,37,28.40
2018,08,09,16,38,28.40
2018,08,09,16,39,28.30
2018,08,09,16,40,28.20
2018,08,09,16,41,28.20
2018,08,09,16,42,28.20
2018,08,09,16,43,28.20
2018,08,09,16,44,28.30
2018,08,09,16,45,28.30
2018,08,09,16,46,28.30
2018,08,09,16,47,28.30
2018,08,09,16,48,28.30
2018,08,09,16,49,28.30
2018,08,09,16,50,28.20
2018,08,09,16,51,28.20
2018,08,09,16,52,28.20
2018,08,09,16,53,28.20
2018,08,09,16,54,28.20
2018,08,09,16,55,28.20
2018,08,09,16,56,28.30
2018,08,09,16,57,28.30
2018,08,09,16,58,28.30
2018,08,09,16,59,28.30
2018,08,09,17,00,28.40
2018,08,09,17,01,28.40
2018,08,09,17,02,28.40
2018,08,09,17,03,28.50
2018,08,09,17,04,28.50
2018,08,09,17,05,28.60
2018,08,09,17,06,28.60
2018,08,09,17,07,28.60
2018,08,09,17,08,28.60
2018,08,09,17,09,28.50
2018,08,09,17,10,28.50
2018,08,09,17,11,28.40
2018,08,09,17,12,28.40
2018,08,09,17,13,28.40
2018,08,09,17,14,28.40
2018,08,09,17,15,28.40
2018,08,09,17,16,28.50
2018,08,09,17,17,28.50
2018,08,09,17,18,28.60
2018,08,09,17,19,28.60